Location: Mentone
(34.5413°N, 85.5351°W)
Time: 09:58:27
(UTC-05:00)

UOSAT-12 - Visible Passes

Search period start: 28 May 2017 00:00
Search period end: 07 June 2017 00:00
Orbit: 604 x 650 km, 64.6° (Epoch: 27 May)

Date Brightness Start Highest point End Pass type
(mag) Time Alt. Az. Time Alt. Az. Time Alt. Az.
28 May 8.1 20:54:33 15° SSE 20:57:14 25° ESE 21:00:55 10° ENE visible
28 May 9.0 22:33:15 10° WSW 22:37:11 29° NW 22:41:10 10° N visible
29 May 7.0 21:12:26 10° SSW 21:16:51 61° ESE 21:21:21 10° NE visible
29 May 10.1 22:54:53 10° W 22:57:21 14° NW 22:59:50 10° NNW visible
30 May 7.8 21:32:14 10° SW 21:36:38 55° WNW 21:41:08 10° NNE visible
31 May 7.9 20:12:41 10° S 20:16:35 30° ESE 20:20:32 10° NE visible
31 May 9.4 21:52:55 10° WSW 21:56:38 25° NW 22:00:24 10° N visible
01 Jun 10.6 04:46:29 10° NNE 04:48:30 13° NE 04:50:31 10° ENE visible
01 Jun 7.0 20:31:46 10° SSW 20:36:13 74° ESE 20:40:46 10° NNE visible
01 Jun 10.4 22:14:58 10° WNW 22:16:50 12° NW 22:18:44 10° NNW visible
02 Jun 8.3 20:51:44 10° SW 20:56:03 46° WNW 21:00:28 10° NNE visible
03 Jun 9.9 21:12:37 10° W 21:16:05 21° NW 21:19:37 10° N visible
04 Jun 10.6 04:05:24 10° NNE 04:08:00 15° NE 04:10:36 10° E visible
04 Jun 10.9 21:35:27 10° NW 21:36:21 10° NW 21:37:15 10° NNW visible
05 Jun 9.4 04:24:04 10° N 04:28:10 29° NE 04:32:14 10° ESE visible
06 Jun 7.7 04:43:27 10° NNW 04:48:07 66° ENE 04:52:43 10° SE visible
06 Jun 10.3 20:32:24 10° W 20:35:34 18° NW 20:38:46 10° N visible
